Pleasant Valley, Missouri
Current Conditions -  °F | °C
As of 8:55 AM on Wednesday 22 Oct 2014 (Local Time) from KGPH Reporting Station
Broken Clouds Broken Clouds  
Wind Chill: 52°   Ceiling: 6500
Heat Index: 52°   Visibility: 10mi
Dew Point: 45°   Wind: 6mph
Humidity: 76%   Direction: 100°E
Pressure: 30.22"   Gusts: NA
Location:  39.2642°N, 94.4209°W
Report Text: KGPH 221355Z AUTO 10005KT 10SM SCT042 BKN065 11/07 A3022 RMK AO2
Loading
Personal Weather Stations






























Interactive Weather Map
Tropical Storm Tracking
New forecast layout! Learn more

10-Day Weather Forecast

Advertisements
Track Severe Weather on mobile